Home   Weather   The Valley   Past weeks

Flag for Anguilla Past Weather in The Valley, Anguilla — Yesterday and Last 2 Weeks

84 °F

Passing clouds.

Feels Like: 96 °F
Forecast: 81 / 87 °F
Wind: 7 mph from East

Location: Juliana Airport - Saint Maarten

Current Time: Oct 22, 2016 at 9:27:19 PM

Latest Report: Oct 22, 2016 at 9:00 PM

Visibility: N/A

Pressure: 29.95 "Hg

Humidity: 84%

Dew Point: 79 °F

Location of The ValleyLocation

Past Weather in The Valley — Graph


The Valley Temperature Yesterday

Maximum temperature yesterday: 88 °F (at 12:00 PM)
Minimum temperature yesterday: 82 °F (at 1:00 AM)
Average temperature yesterday: 85 °F

High & Low Weather Summary for the Past Weeks

High90 °F (Oct 10, 12:00 PM)100% (Oct 10, 7:00 PM)30.01 "Hg (Oct 10, 7:00 PM)
Low79 °F (Oct 16, 5:00 AM)49% (Oct 15, 1:00 PM)29.80 "Hg (Oct 8, 3:00 PM)
Average85 °F79%29.89 "Hg
* Reported Oct 7 8:00 PM — Oct 22 8:00 PM, The Valley, Weather by CustomWeather, © 2016

Note: Actual official high and low records may vary slightly from our data, if they occured in-between our weather recording intervals... More about our weather records


The Valley Weather History for the Previous 24 Hours

Scroll right to see more
Time TempWeatherWind HumidityBarometerVisibility
8:00 PM
Sat, Oct 22
84 °FPassing clouds.8 mph84%29.95 "HgN/A
7:00 PM84 °FPassing clouds.8 mph79%29.92 "HgN/A
6:00 PM84 °FPassing clouds.8 mph79%29.92 "HgN/A
5:00 PM86 °FScattered clouds.8 mph75%29.89 "HgN/A
4:00 PM86 °FScattered clouds.9 mph79%29.89 "HgN/A
3:00 PM88 °FScattered clouds.8 mph70%29.89 "HgN/A
2:00 PM88 °FScattered clouds.7 mph75%29.89 "HgN/A
1:00 PM84 °FPassing clouds.13 mph79%29.92 "HgN/A
12:00 PM88 °FPassing clouds.9 mph75%29.92 "HgN/A
11:00 AM88 °FPassing clouds.12 mph75%29.95 "HgN/A
10:00 AM88 °FPassing clouds.10 mph70%29.95 "HgN/A
9:00 AM86 °FPassing clouds.8 mph79%29.95 "HgN/A
8:00 AM86 °FPassing clouds.7 mph75%29.92 "HgN/A
7:00 AM84 °FPassing clouds.7 mph79%29.92 "HgN/A
6:00 AM82 °FPassing clouds.6 mph79%29.89 "HgN/A
5:00 AM82 °FPassing clouds.7 mph79%29.86 "HgN/A
4:00 AM82 °FPassing clouds.7 mph79%29.86 "HgN/A
2:00 AM82 °FPassing clouds.9 mph79%29.86 "HgN/A
1:00 AM82 °FPassing clouds.7 mph79%29.86 "HgN/A
12:00 AM82 °FPassing clouds.8 mph79%29.89 "HgN/A
11:00 PM
Fri, Oct 21
82 °FPassing clouds.6 mph79%29.89 "HgN/A
10:00 PM82 °FPassing clouds.6 mph79%29.92 "HgN/A
9:00 PM84 °FPassing clouds.7 mph74%29.92 "HgN/A
Weather by CustomWeather, © 2016

See weather overviewHow to use our weather pages